STARLINK-3953, 52559

Orbit data source: Space-Track

STARLINK-3953, 52559 is a payload satellite owned by SpaceX/Seattle (US) in LEO that was launched on Fri, 13 May 2022 UTC via an FALCON 9 launch vehicle from the Air Force Western Test Range (AFWTR). Payload-class satellites include a variety of spacecraft equipped with specific instruments for various scientific and technological missions. These include communications satellites like Starlink; space stations such as the ISS; scientific satellites like the Hubble; Earth observation satellites from companies like Planet Labs, Umbra, and HawkEye 360; GPS; miniature CubeSats for education and research; and military/defense satellites.

Loading next visibility...
Identifier
52559, 2022-051AC
Orbit
LEO
Country
Flag of USUS
Related business
Manufacturer
SpaceX/Seattle
Mission
Operational Commercial Communications
Bus & Motor
STARLINK, Unknown motor
Mass
297 kg wet, ~275 kg dry
Launch date (UTC)
2022-05-13 (4 years ago)
Launch vehicle
FALCON 9
Launch site
Air Force Western Test Range (AFWTR)
Object type
Payload
Rocket body
Debris
Shape & HBR
Box + 1 Pan, 10.1 m
Radar Cross Section
13.562 m², Large (>1 m²)

Expand to show TLE details & history
Last TLE update: 3 days ago

TLE from 3 days ago
0 STARLINK-3953
1 52559U 22051AC  26170.87162156 -.00002433  00000-0 -13486-3 0  9997
2 52559  53.1596  20.4796 0001290  87.5272 272.5868 15.08835517227000
Epoch: 2026-06-19T20:55Z
TLE epoch observation values (Epoch: 2026-06-19T20:55:08.102Z)
Latitude
0.00004°
Longitude
158.60149°
Altitude
540.608 km
Speed
7.593 km/s
True Right ascension
01h 21m 55s
True Declination
0° 00' 00"
Sunlit
Object was in daylight at epoch
Visualization orbit readout
Latitude
Unknown
Longitude
Unknown
Altitude
Unknown
Speed
Unknown
Apparent Right ascension
Unknown
Apparent Declination
Unknown
Sunlit
N/A
Visualization observer readout
Local Sidereal Time
21:32:32
Azimuth
Unknown
Elevation
Unknown
Doppler factor
Unknown
Orbital elements
Apogee altitude
540.904 km
Perigee altitude
539.119 km
Semi-major axis
6,918.148 km
Eccentricity
0.00013
Inclination
53.1596°
RAAN
20.4796°
Arg. of periapsis
87.5272°
True anomaly
272.57203°
Mean anomaly
272.5868°
Eccentric anomaly
272.57942°
Mean motion
3.77188 °/min
Orbital period
95.44 mins
BSTAR
-0.00013486
Loading maneuver chart data...
Computing Atmospheric mass density...
Loading historical data...
Loading historical data...
Loading historical data...
Loading historical data...
Loading historical data...
Loading historical data...
Loading historical data...

Documentation

Showing up to 5 results
|